Regional Weather Roundup
Issued by NWS

Home | Current Version | Previous Version | Text Only | Print | Product List | Glossary Off
Versions: 1 2 3 4 5 6 7 8 9 10 11 12 13 14 15 16 17 18 19 20 21 22 23 24 25 26 27 28 29 30 31 32 33 34 35 36 37 38 39 40 41 42 43 44 45 46 47 48 49 50

000
ASUS43 KLSX 280407
RWRMO

WEATHER SUMMARY FOR MISSOURI
NATIONAL WEATHER SERVICE SPRINGFIELD MO
1000 PM CST SAT DEC 27 2014

NOTE: "FAIR" INDICATES FEW OR NO CLOUDS BELOW 12,000 FEET WITH NO
       SIGNIFICANT WEATHER AND/OR OBSTRUCTIONS TO VISIBILITY.
       CURRENT SKY AND/OR WEATHER CONDITIONS ARE NOT AVAILABLE FOR
       CHILLICOTHE AND FARMINGTON.

MOZ001>031-035>038-043-044-053-054-280500-
...NORTHERN AND WESTERN MISSOURI...

CITY           SKY/WX    TMP DP  RH WIND       PRES   REMARKS
KANSAS CTY INT CLEAR     24  19  81 W3        30.26S
KANSAS C DTWN  CLEAR     28  19  69 CALM      30.29R
LEE`S SUMMIT   CLEAR     25  18  74 CALM      30.28R
ST JOSEPH      CLEAR     21  17  84 W5        30.28S WCI  15
CHILLICOTHE      N/A     26  19  74 CALM      30.28R
KIRKSVILLE     CLOUDY    28  23  81 W7        30.24R WCI  21

$$
MOZ066>068-077>081-088>096-101>105-280500-
...SOUTHWEST MISSOURI...

CITY           SKY/WX    TMP DP  RH WIND       PRES   REMARKS
SPRINGFIELD    CLOUDY    30  25  81 NW9       30.23S WCI  22
JOPLIN         CLEAR     25  23  92 CALM      30.29R

$$
MOZ032>034-039>042-045>050-055>058-069>072-280500-
...CENTRAL MISSOURI...

CITY           SKY/WX    TMP DP  RH WIND       PRES   REMARKS
COLUMBIA       CLOUDY    30  24  78 NW9       30.23F WCI  22
JEFFERSON CITY CLOUDY    32  25  75 N6        30.25F WCI  26
ROLLA          CLOUDY    30  25  81 NW13      30.20S WCI  20
SEDALIA        CLOUDY    30  20  66 NW8       30.26F WCI  22
WHITEMAN AFB   CLEAR     27  21  80 NW1       30.27R
WARRENSBURG    CLEAR     27  21  80 W3        30.28S
OSAGE BEACH    CLOUDY    30  25  80 N3        30.23F

$$
MOZ051-052-059>065-280500-
...EAST CENTRAL MISSOURI...

CITY           SKY/WX    TMP DP  RH WIND       PRES   REMARKS
ST LOUIS INTL  CLOUDY    36  30  79 NW9       30.21S WCI  29
SPIRIT OF STL  CLOUDY    35  31  85 W7        30.22R WCI  29
ST CHARLES     CLOUDY    34  28  79 N10       30.21S WCI  26

$$
MOZ072>076-082>087-097>100-106>115-280500-
...SOUTH CENTRAL AND SOUTHEAST MISSOURI...

CITY           SKY/WX    TMP DP  RH WIND       PRES   REMARKS
CAPE GIRARDEAU CLOUDY    40  37  89 N16       30.18R
FARMINGTON     CLOUDY    34  32  93 SE6       30.20R WCI  29
POPLAR BLUFF   CLOUDY    41  37  86 N9        30.17R
WEST PLAINS    CLOUDY    34  31  88 N10       30.20R WCI  26

$$



USA.gov is the U.S. government's official web portal to all federal, state and local government web resources and services.